Home > Time Zones > World Clock > Weather > Cuba > Havana > Past weeks

Flag for Cuba Weather past 2 weeks in Havana, Cuba

Now
75 °F

Passing clouds.


Feels Like: 75 °F
Forecast: 78 / 89 °F
Wind: 5 mph from East

Location: Aeropuerto Jose Marti - Rancho-Boyeros - Habana

Current Time: May 25, 2015 at 8:32:42 AM

Latest Report: May 25, 2015 at 7:55 AM


Visibility: 6 mi

Pressure: 30.09 "Hg

Humidity: 89%

Dew point: 72 °F

Location of HavanaLocation

Historic Weather in Havana — Graph

°F

Havana temperature yesterday

Maximum temperature yesterday: 93 °F (at 1:55 PM)
Minimum temperature yesterday: 70 °F (at 10:55 PM)
Average temperature yesterday: 78 °F

Past Weeks' High & Low Weather Summary

 TemperatureHumidityPressure
High93 °F (May 24, 1:55 PM)89% (May 13, 7:55 AM)30.15 "Hg (May 13, 7:55 AM)
Low66 °F (May 20, 6:55 AM)34% (May 16, 2:55 PM)29.98 "Hg (May 20, 4:55 AM)
Average79 °F70%30.07 "Hg
* Reported May 10 6:55 AM — May 25 6:55 AM, Havana, Weather by CustomWeather, © 2015

Note: Actual official high and low records may vary slightly from our data, if they occured in-between our weather recording intervals... More about our weather records

Advertising

Havana weather history for previous 24 hours

 ConditionsComfort  
Time TempWeatherWind HumidityBarometerVisibility
6:55 AM
Mon, May 25
73 °FPassing clouds.2 mph89%30.09 "Hg4 mi
5:55 AM72 °FClear.2 mph88%30.07 "Hg6 mi
4:55 AM73 °FClear.1 mph83%30.07 "Hg6 mi
3:55 AM72 °FClear.5 mph88%30.07 "Hg6 mi
2:55 AM72 °FClear.3 mph88%30.07 "Hg6 mi
1:55 AM72 °FClear.2 mph88%30.09 "Hg6 mi
12:55 AM72 °FClear.3 mph83%30.09 "Hg6 mi
11:55 PM
Sun, May 24
72 °FClear.3 mph83%30.12 "Hg6 mi
10:55 PM70 °FClear.3 mph88%30.09 "Hg6 mi
9:55 PM72 °FPartly cloudy.3 mph83%30.09 "Hg6 mi
8:55 PM73 °FLight rain. Broken clouds.13 mph78%30.12 "Hg4 mi
7:55 PM79 °FPartly sunny.12 mph79%30.07 "Hg6 mi
6:55 PM77 °FPartly sunny.2 mph83%30.07 "Hg6 mi
5:55 PM75 °FPartly sunny.7 mph83%30.07 "Hg5 mi
4:55 PM72 °FThunderstorms. Partly sunny.9 mph88%30.07 "Hg4 mi
3:55 PM77 °FThunderstorms. Scattered clouds.8 mph79%30.07 "Hg4 mi
2:55 PM88 °FScattered clouds.14 mph55%30.07 "HgN/A
1:55 PM93 °FPartly sunny.9 mph39%30.07 "HgN/A
12:55 PM91 °FPartly sunny.9 mph41%30.09 "HgN/A
11:55 AM88 °FPartly sunny.12 mph49%30.12 "HgN/A
10:55 AM86 °FBroken clouds.13 mph52%30.12 "HgN/A
9:55 AM84 °FBroken clouds.9 mph58%30.12 "Hg6 mi
8:55 AM81 °FPartly sunny.12 mph70%30.12 "Hg6 mi
Weather by CustomWeather, © 2015

See weather overviewHow to use our weather pages